Regional Weather Roundup
Issued by NWS

Home | Current Version | Previous Version | Text Only | Print | Product List | Glossary Off
Versions: 1 2 3 4 5 6 7 8 9 10 11 12 13 14 15 16 17 18 19 20 21 22 23 24 25 26 27 28 29 30 31 32 33 34 35 36 37 38 39 40 41 42 43 44 45 46 47 48 49 50

000
ASUS43 KDMX 110801
RWRIA

WEATHER ROUNDUP FOR IOWA
NATIONAL WEATHER SERVICE DES MOINES IA
200 AM CST MON DEC 11 2017

NOTE: "FAIR" INDICATES FEW OR NO CLOUDS BELOW 12,000 FEET WITH NO
SIGNIFICANT WEATHER AND/OR OBSTRUCTIONS TO VISIBILITY.

* - THESE STATIONS ARE NOT NWS STATIONS...THUS NOT UNDER NWS
QUALITY CONTROL.  THEY ALSO DO NOT REPORT WEATHER SUCH
AS PRECIPITATION OR FOG.

IAZ001>003-012>014-020>022-031>034-043>046-110900-
   NORTHWEST IOWA

CITY           SKY/WX    TMP DP  RH WIND       PRES   REMARKS
CARROLL *      CLOUDY    36  25  64 CALM      29.93F
DENISON *      CLOUDY    30  23  74 S3        29.94F
LE MARS *      PTCLDY    34  27  75 CALM      29.94F
ORANGE CITY *  CLOUDY    36  28  75 SW9       29.91F WCI  29
SHELDON *      CLOUDY    32  27  80 SW6       29.89F WCI  26
SIOUX CITY     MOCLDY    30  22  72 CALM      29.95S
SPENCER        CLOUDY    33  26  75 SW9       29.91R WCI  25
STORM LAKE *   CLOUDY    36  25  64 W9        29.92S WCI  29
$$

IAZ055>058-069>071-079>083-090>094-110900-
   SOUTHWEST IOWA

CITY           SKY/WX    TMP DP  RH WIND       PRES   REMARKS
ATLANTIC *     CLOUDY    30  25  80 CALM      29.97F
AUDUBON *      CLOUDY    30  25  80 CALM      29.95F
CLARINDA *     CLOUDY    27  23  86 CALM      30.01F
COUNCIL BLFS * CLOUDY    37  23  56 SW9       29.96F WCI  31
CRESTON *      CLOUDY    32  25  74 SW7       29.99F WCI  26
HARLAN  *      CLOUDY    28  25  86 SW5       29.99F WCI  23
LAMONI         CLOUDY    33  24  69 SW8       29.99F WCI  26
RED OAK *      CLOUDY    27  23  86 CALM      29.98F
SHENANDOAH *   PTCLDY    27  21  80 CALM      30.00F
$$

IAZ047>049-059>061-072>074-084-110900-
   CENTRAL IOWA

CITY           SKY/WX    TMP DP  RH WIND       PRES   REMARKS
AMES           PTCLDY    30  24  78 S5        29.96F WCI  25
ANKENY *       CLOUDY    28  25  86 CALM      29.98F
BOONE *        MOCLDY    34  25  69 S5        29.94F WCI  30
CHARITON *     CLOUDY    30  25  80 SW6       29.98F WCI  24
DES MOINES     MOCLDY    34  24  67 CALM      29.97F
GRINNELL*      PTCLDY    29  23  79 S5        30.00S WCI  23
KNOXVILLE *    PTCLDY    32  23  69 S5        29.97F WCI  27
MARSHALLTOWN   CLOUDY    31  23  72 S6        29.97F WCI  25
NEWTON *       CLOUDY    30  25  80 S5        29.99F WCI  25
PELLA *        PTCLDY    32  24  73 CALM      30.00F
$$

IAZ004>006-015-016-023>025-035-036-110900-
   NORTH CENTRAL IOWA

CITY           SKY/WX    TMP DP  RH WIND       PRES   REMARKS
ALGONA *       CLOUDY    34  27  75 S13       29.90F WCI  25
CLARION *      CLOUDY    32  25  74 S10       29.92F WCI  24
ESTHERVILLE    CLOUDY    33  28  81 SW10      29.88F WCI  25
FORT DODGE *   MOCLDY    33  24  69 S8        29.93F WCI  26
MASON CITY     CLOUDY    29  22  75 S13       29.90F WCI  19
FOREST CITY *  CLOUDY    32  27  80 S14       29.87F WCI  22
WEBSTER CITY * CLOUDY    32  23  69 S9        29.92F WCI  24
IOWA FALLS *     N/A     32  25  76 S6        29.97S WCI  26
$$

IAZ007>011-017>019-026>030-037>042-050>054-066-110900-
   NORTHEAST IOWA

CITY           SKY/WX    TMP DP  RH WIND       PRES   REMARKS
CEDAR RAPIDS   CLOUDY    29  23  78 SE7       29.99F WCI  22
CHARLES CITY * CLOUDY    28  25  86 S8        29.95F WCI  20
CLINTON *      CLOUDY    25  23  92 S5        30.04S WCI  19
DECORAH *      CLOUDY    27  23  86 VRB5      29.94S WCI  21
DUBUQUE        CLOUDY    24  21  88 S7        29.98F WCI  16
MONTICELLO *   CLOUDY    25  21  86 CALM      30.01F
OELWEIN *      CLOUDY    27  25  93 S8        29.97F WCI  18
WATERLOO       CLOUDY    29  22  75 S6        29.97F WCI  23
$$

IAZ064-065-067-068-078-110900-
   EAST CENTRAL IOWA

CITY           SKY/WX    TMP DP  RH WIND       PRES   REMARKS
DAVENPORT      PTCLDY    27  22  81 S6        30.05F WCI  20
IOWA CITY      PTCLDY    30  23  75 SE5       30.03F WCI  25
MT. PLEASANT * CLOUDY    31  24  74 SE6       30.03F WCI  25
MUSCATINE *    CLOUDY    30  23  74 S6        30.04F WCI  24
QUAD CITIES    CLOUDY    29  23  78 CALM      30.04S
$$

IAZ062-063-075>077-085>089-095>099-110900-
   SOUTHEAST IOWA

CITY           SKY/WX    TMP DP  RH WIND       PRES   REMARKS
BURLINGTON     CLOUDY    31  25  78 S5        30.04F WCI  26
FAIRFIELD *    CLOUDY    30  23  74 SE7       30.00F WCI  23
FORT MADISON * CLOUDY    32  27  80 CALM      30.04F
KEOKUK *       CLOUDY    34  25  69 CALM      30.03F
OSKALOOSA *      N/A     28  22  80 S7        30.00F WCI  20
OTTUMWA        CLOUDY    30  23  75 S7        29.99F WCI  23
WASHINGTON *   CLOUDY    28  25  86 S8        30.01F WCI  20
$$

ABBREVIATIONS USED IN REMARKS
   TC - TEMPERATURES IN CELSIUS
  WCI - WIND CHILL INDEX
   HX - HEAT INDEX
  VSB - VISIBILITY
$$




USA.gov is the U.S. government's official web portal to all federal, state and local government web resources and services.